{"data":{"norad_id":56504,"epoch":"2026-05-25T00:28:33.961728Z","epoch_age_seconds":67106,"freshness":"FRESH","line1":"1 56504U 23065B   26145.01983752 -.00000213  00000+0  17920-5 0  9999","line2":"2 56504  43.0004 141.3965 0000853 261.1224  98.9531 15.27579802168271","mean_motion":15.27579802,"eccentricity":8.53e-5,"inclination_deg":43.0004,"raan_deg":141.3965,"arg_perigee_deg":261.1224,"mean_anomaly_deg":98.9531,"bstar":1.792e-6,"rev_number":16827,"period_min":94.266760932206,"perigee_km":482.46442969838,"apogee_km":483.63494814751,"semimajor_km":6861.1866889229,"source":"CELESTRAK","updated_at":"2026-05-25T13:38:18.077462Z"}}